Location: *
(44.2167°N, 8.3167°E)
Time: 11:14:02
(UTC+00:00)

Daily predictions for brighter satellites

Satellite Brightness Start Highest point End
(mag) Time Altitude Azimuth Time Altitude Azimuth Time Altitude Azimuth
COBE Rocket 4.1 17:43:37 10° NNE 17:48:44 90° NW 17:53:54 10° SSW
Cosmos 2184 Rocket 4.1 17:45:27 10° N 17:51:45 89° WSW 17:58:04 10° S
Cosmos 2227 Rocket 2.9 17:48:56 10° SSE 17:53:51 32° ESE 17:58:48 10° NE
FREGAT/IRIS 4.4 17:52:49 10° E 17:54:20 14° ENE 17:55:53 10° NE
Cosmos 2084 Rocket 3.9 17:54:44 10° SSW 17:58:58 45° ESE 18:03:14 10° NE
BREEZE-M DEB (TANK) 4.0 17:55:18 10° WNW 17:59:07 42° N 18:06:08 10° ENE
Cosmos 2219 3.3 17:55:16 10° S 18:00:55 62° ESE 18:06:36 10° NNE
CZ-2D R/B 3.3 17:58:14 10° SSE 18:01:56 54° ENE 18:05:40 10° N
Cosmos 2297 Rocket 2.6 17:58:33 10° S 18:03:46 40° ESE 18:09:01 10° NE
Cosmos 1190 Rocket 4.3 18:00:19 10° N 18:05:28 49° ENE 18:10:32 10° SE
Cosmos 614 Rocket 4.2 18:00:31 10° NNW 18:05:39 53° ENE 18:10:41 10° SE
NOSS 3-4 (A) 4.0 17:59:46 10° NW 18:06:51 86° SW 18:14:36 10° SSE
NOSS 3-4 (C) 4.0 17:59:52 10° NW 18:06:57 87° WSW 18:14:42 10° SSE
SJ-6B 4.3 18:05:30 10° ESE 18:08:28 20° ENE 18:11:25 10° NNE
COSMO-SKYMED 1 3.7 18:04:40 10° N 18:08:51 48° WNW 18:13:02 10° SW
Nadezhda 1 Rocket 3.9 18:03:52 10° S 18:09:56 86° E 18:16:04 10° N
H-2A R/B 3.4 18:09:15 11° ESE 18:12:30 20° ENE 18:16:07 10° NNE
CZ-4 R/B 2.8 18:09:41 10° S 18:13:22 41° W 18:17:10 10° NNW
Orbus 7S? 4.3 18:10:06 10° SSW 18:14:05 64° SE 18:23:27 10° NE
Cosmos 1295 Rocket 4.5 18:08:53 10° N 18:15:01 64° E 18:21:02 10° SSE
Okean 1-7 Rocket 4.1 18:10:55 10° N 18:15:08 40° ENE 18:19:22 10° SSE
SL-8 R/B 4.3 18:12:42 10° WNW 18:17:22 50° N 18:21:34 13° ENE
In-Cosmos 22 4.3 18:14:26 10° N 18:19:44 52° ENE 18:25:05 10° SSE
Ariane Rocket 2.9 18:15:29 10° SSE 18:20:32 77° ENE 18:25:38 10° N
HJ-1C 3.5 18:18:23 10° SSE 18:21:41 56° ENE 18:25:02 10° N
GENESIS II 4.4 18:18:20 10° NNW 18:22:26 62° NE 18:25:47 14° SE
Cosmos 405 Rocket 2.9 18:19:28 10° SSE 18:22:59 44° E 18:26:33 10° NNE
Cosmos 1455 Rocket 3.6 18:22:22 10° SSE 18:26:25 36° E 18:30:31 10° NNE
Cosmos 1544 Rocket 4.4 18:22:36 10° SSE 18:26:29 30° E 18:30:22 10° NNE
BREEZE-M DEB (TANK) 4.4 18:09:15 10° WNW 18:26:48 78° NNE 18:29:55 19° ESE
PSLV R/B 3.5 18:24:36 10° WSW 18:27:06 37° S 18:28:09 25° SE
USA 234 4.3 18:21:25 10° NE 18:27:31 43° NNW 18:33:37 10° W
Lacrosse 5 rocket 1.0 18:24:41 10° SW 18:28:18 89° SE 18:32:05 10° NE
ASTEX 1 3.4 18:24:53 10° NNE 18:29:43 56° E 18:34:31 10° S
Cosmos 389 Rocket 2.3 18:26:26 10° N 18:29:53 78° E 18:33:19 10° SSE
Cosmos 1674 3.8 18:27:26 10° NNE 18:30:27 23° ENE 18:31:14 21° E
MOS 1 4.3 18:26:02 10° SSE 18:31:38 64° ENE 18:37:16 10° N
Cosmos 407 Rocket 3.5 18:27:26 10° NNW 18:32:35 88° WSW 18:37:42 10° SSE
USA 186 2.5 18:33:12 22° SE 18:34:55 37° ENE 18:38:05 10° N
Cosmos 2237 Rocket 2.3 18:30:32 10° NNW 18:36:16 82° WSW 18:41:57 10° SSE
Cosmos 2056 Rocket 3.5 18:31:33 10° SSW 18:36:59 83° ESE 18:42:24 10° NNE
Cosmos 1939 Rocket 3.2 18:34:06 10° S 18:37:55 64° W 18:41:47 10° NNW
ISS -3.1 18:34:47 10° WSW 18:38:03 53° NNW 18:40:32 16° NE
Cosmos 1437 Rocket 3.4 18:35:09 10° N 18:38:36 32° ENE 18:39:44 26° ESE
Cosmos 1420 Rocket 4.4 18:34:02 10° S 18:38:55 39° ESE 18:43:51 10° NE
Cosmos 2333 Rocket 4.1 18:34:03 10° NW 18:38:59 31° WSW 18:43:55 10° SSW
DELTA 2 R/B (1) 3.9 18:36:12 10° WSW 18:41:37 52° S 18:44:50 24° ESE
ERBS 2.7 18:38:39 10° NW 18:41:57 47° NE 18:43:05 32° E
Meteor 1-15 Rocket 4.3 18:37:59 10° S 18:43:47 88° E 18:49:42 10° N
Cosmos 1140 Rocket 3.4 18:40:38 10° NNW 18:45:50 82° ENE 18:50:35 12° SSE
Cosmos 1626 Rocket 4.4 18:42:35 10° NNE 18:46:22 29° ENE 18:47:01 27° E
SAR-Lupe-2 3.4 18:42:58 10° NNE 18:46:34 75° ESE 18:50:07 10° S
Cosmos 1980 4.1 18:41:03 10° NNW 18:46:38 63° WSW 18:52:12 10° S
Cosmos 1624 Rocket 4.1 18:42:52 10° SSW 18:48:03 77° WNW 18:53:16 10° NNE
ATLAS 2AS CENTAUR R/B 4.3 18:43:04 10° NW 18:49:43 35° WSW 18:55:52 10° S
Meteor 2-17 Rocket 4.3 18:43:50 10° N 18:49:56 78° E 18:55:58 10° SSE
Meteor 1-24 Rocket 4.1 18:45:02 10° N 18:50:40 47° ENE 18:54:22 21° SE
Cosmos 1805 3.4 18:54:16 23° SSE 18:56:24 48° E 19:00:10 10° NNE
Cosmos 1954 Rocket 3.9 18:51:15 10° NNW 18:56:29 76° ENE 18:59:56 21° SSE
EO 1 Delta rocket 4.4 18:53:44 10° S 19:00:12 81° W 19:05:23 10° NNW
Cosmos 2181 Rocket 4.0 18:59:40 10° S 19:05:56 88° W 19:12:22 10° N
GEOS 3 Rocket 3.5 19:05:53 31° SE 19:08:26 86° NE 19:13:35 10° NW
Cosmos 1602 Rocket 4.0 19:04:49 10° N 19:08:44 39° ENE 19:08:44 39° ENE
Resurs 1-3 4.0 19:08:40 41° E 19:08:59 42° ENE 19:13:07 10° N
KORONAS-FOTON 3.7 19:05:18 10° N 19:09:03 57° E 19:09:08 57° E
Cosmos 2341 Rocket 4.4 19:02:58 10° NNW 19:09:06 63° W 19:15:13 10° S
Lacrosse 5 2.7 19:04:54 10° S 19:08:26 31° SSE 19:08:26 31° SSE
Cosmos 1626 4.4 19:06:57 10° NNE 19:07:34 13° NNE 19:07:34 13° NNE
Cosmos 482 Debris 4.0 19:04:55 10° SW 19:10:00 84° SE 19:10:35 60° ENE
SL-16 R/B 2.1 19:04:22 10° NNW 19:10:04 74° ENE 19:12:43 33° SE
Meteor 1-4 Rocket 4.0 19:12:00 10° NNW 19:15:14 35° W 19:18:16 11° SSW
Cosmos 864 Rocket 4.4 19:11:30 10° N 19:17:47 83° E 19:22:40 18° S
Cosmos 2366 rocket 4.0 19:12:28 10° N 19:18:53 88° E 19:24:13 15° S
Cosmos 2218 Rocket 4.0 19:14:48 10° N 19:21:12 84° W 19:26:58 13° S
SPOT 3 Rocket 3.6 19:19:19 22° S 19:22:45 77° WSW 19:27:55 10° NNW
ARGOS 3.0 19:20:36 36° SSE 19:22:52 77° ENE 19:28:17 10° N
Cosmos 2082 3.8 19:17:56 10° SSW 19:23:40 79° WNW 19:29:25 10° NNE
Transit 2A Rocket 4.4 19:21:05 10° NNW 19:25:28 65° NE 19:25:33 65° ENE
Cosmos 1821 Rocket 4.4 19:20:15 10° N 19:26:00 40° ENE 19:26:17 40° E
Resurs 01 Rocket 2.0 19:26:29 46° NE 19:26:29 46° NE 19:30:19 10° N
SL-8 Rocket 4.3 19:20:22 10° NNW 19:26:29 65° W 19:32:32 10° S
RESURS DK-1 2.8 19:22:50 10° NNW 19:26:21 46° NNE 19:26:21 46° NNE
Meteor 2-5 Rocket 4.2 19:23:31 10° NNW 19:29:19 65° W 19:34:40 13° S
Cosmos 1452 Rocket 3.4 19:25:47 10° SSW 19:31:02 89° WNW 19:36:20 10° NNE
Meteor 1-22 Rocket 4.3 19:25:30 10° S 19:31:36 90° WSW 19:37:45 10° N
CZ-2C R/B 3.2 19:30:52 54° ESE 19:31:36 60° ENE 19:37:07 10° N
MetOp-A 4.1 19:34:28 59° ESE 19:35:05 65° ENE 19:40:25 10° N
Cosmos 2227 Rocket 3.4 19:32:26 10° SW 19:37:46 41° WNW 19:43:08 10° NNE
SJ-6B 4.2 19:41:09 26° SSW 19:42:51 38° W 19:46:41 10° NNW
Cosmos 2297 Rocket 3.8 19:42:46 10° WSW 19:47:52 34° NW 19:53:00 10° N
ADEOS Rocket 3.6 19:43:08 10° NNE 19:50:40 83° WNW 19:58:28 10° SSW
Meteor 2-12 Rocket 4.4 19:44:51 10° N 19:50:51 60° ENE 19:50:51 60° ENE
H-2A R/B 2.5 19:49:53 38° SSW 19:51:29 55° W 19:56:28 10° NNW
SL-08 RB Rocket 4.0 19:58:55 64° W 19:58:55 64° W 20:03:27 10° NNW
SL-8 R/B 4.1 19:55:28 10° WNW 19:59:31 62° NW 19:59:31 62° NW
Cosmos 1850 Rocket 4.2 19:59:49 10° NNW 20:04:53 66° WSW 20:04:53 66° WSW
Lacrosse 5 rocket 3.5 20:05:08 10° WNW 20:07:56 20° NNW 20:08:05 20° NNW
Cosmos 1943 3.9 20:03:26 10° NNW 20:07:51 43° NNE 20:07:51 43° NNE
BREEZE M DEB (TANK) 3.9 20:10:48 10° WNW 20:12:29 36° NW 20:12:29 36° NW
ISS -0.6 20:12:34 10° WNW 20:13:25 15° NW 20:13:25 15° NW
Cosmos 1934 Rocket 4.3 20:15:26 10° N 20:20:14 53° NNE 20:20:14 53° NNE
Terra 4.3 20:25:43 13° NNE 20:25:43 13° NNE 20:26:25 10° NNE
CZ-2C R/B 4.1 20:40:50 10° N 20:43:38 31° N 20:43:38 31° N
Lacrosse 5 4.4 20:47:18 10° WSW 20:47:45 12° WSW 20:47:45 12° WSW
SL-16 R/B 4.4 20:50:01 10° WNW 20:53:30 17° W 20:54:38 16° WSW
Resurs 01 Rocket 4.3 21:04:04 15° WNW 21:04:04 15° WNW 21:05:44 10° NW
CZ-4C R/B 3.9 21:37:36 10° NNW 21:42:04 38° N 21:42:04 38° N
